Regional Weather Roundup
Issued by NWS

Home | Current Version | Previous Version | Graphics & Text | Print | Product List | Glossary Off
Versions: 1 2 3 4 5 6 7 8 9 10 11 12 13 14 15 16 17 18 19 20 21 22 23 24 25 26 27 28 29 30 31 32 33 34 35 36 37 38 39 40 41 42 43 44 45 46 47 48 49 50

000
ASUS43 KTOP 230959
RWRKS

WEATHER ROUNDUP FOR KANSAS
NATIONAL WEATHER SERVICE GOODLAND KS
500 AM CDT SUN APR 23 2017

NOTE:  "FAIR" INDICATES FEW OR NO CLOUDS BELOW 12,000 FEET WITH NO
SIGNIFICANT WEATHER AND/OR OBSTRUCTIONS TO VISIBILITY.

KSZ001>006-013>018-027>032-041>047-231100-
NORTHWEST KANSAS

CITY           SKY/WX    TMP DP  RH WIND       PRES   REMARKS
GOODLAND       CLEAR     40  30  67 S14       30.15F WCI  32
HAYS           CLEAR     32  29  88 SW3       30.21S
HILL CITY      CLEAR     35  31  85 W5        30.19F
RUSSELL        CLEAR     36  31  82 SW7       30.19S
$$

KSZ061>065-074>080-084>089-231100-
SOUTHWEST KANSAS

CITY           SKY/WX    TMP DP  RH WIND       PRES   REMARKS
DODGE CITY     CLEAR     36  30  79 SW6       30.22F
ELKHART          N/A     40  29  65 SW8         N/A
GARDEN CITY    CLEAR     35  30  82 W6        30.22F
GREAT BEND     CLEAR     34  31  88 W6        30.21F
LIBERAL        CLEAR     34  25  69 W8        30.24S
$$

KSZ066>073-081>083-090>101-231100-
SOUTHEAST KANSAS

CITY           SKY/WX    TMP DP  RH WIND       PRES   REMARKS
CHANUTE        CLEAR     42  34  73 N3        30.16R
COFFEYVILLE    CLEAR     42  37  82 N7        30.15S
HUTCHINSON     CLEAR     35  33  92 NW3       30.19F
MEDICINE LODGE   N/A     36  34  92 NW5       30.21S
NEWTON         CLEAR     40  35  83 N5        30.20S
PARSONS        CLEAR     44  36  73 N5        30.16S
WICHITA INTL   CLEAR     40  36  86 NW5       30.19S
WICHITA JABRA  CLEAR     44  33  65 N8        30.18F
WINFIELD       CLEAR     41  37  86 CALM      30.18F
$$

KSZ007>012-019>026-033>040-048>060-102>105-231100-
NORTHEAST KANSAS

CITY           SKY/WX    TMP DP  RH WIND       PRES   REMARKS
CONCORDIA      CLEAR     41  33  73 CALM      30.18F
EMPORIA        CLEAR     41  36  82 W7        30.17F
LAWRENCE       CLEAR     35  34  96 NW5       30.17F
MANHATTAN      CLEAR     34  32  92 CALM      30.19F
OLATHE IND     CLEAR     41  32  70 CALM      30.17S
OLATHE EXE     CLEAR     45  33  63 N6        30.16S
SALINA         CLEAR     40  34  79 CALM      30.20F
TOPEKA BILLARD CLEAR     37  37 100 CALM      30.18S
TOPEKA FORBES  CLEAR     38  34  85 NW6       30.17S
$$



USA.gov is the U.S. government's official web portal to all federal, state and local government web resources and services.